Lindcove
DateTemperatureDew Point
09/02 - 12:30 AM63.1°51.9°
09/02 - 12:15 AM64.4°51.7°
09/02 - 12:00 AM64.8°51.6°
09/01 - 11:45 PM65.8°51.5°
09/01 - 11:30 PM66.8°51.2°
09/01 - 11:15 PM67.6°51.1°
09/01 - 11:00 PM68.1°51.4°
09/01 - 10:45 PM66.4°54.5°
09/01 - 10:30 PM64.9°59.7°
09/01 - 10:15 PM64.6°58.7°
09/01 - 10:00 PM66.5°60.0°
09/01 - 09:45 PM67.7°60.0°
09/01 - 09:30 PM69.9°61.2°
09/01 - 09:15 PM67.3°58.0°
09/01 - 09:00 PM67.6°57.7°
09/01 - 08:45 PM68.8°57.5°
09/01 - 08:30 PM70.6°58.4°
09/01 - 08:15 PM69.6°58.2°
09/01 - 08:00 PM72.2°58.5°
09/01 - 07:45 PM73.6°56.4°
09/01 - 07:30 PM74.6°53.0°
09/01 - 07:15 PM76.1°52.4°
09/01 - 07:00 PM77.6°51.7°
09/01 - 06:45 PM79.2°50.9°
09/01 - 06:30 PM80.3°50.3°
09/01 - 06:15 PM81.1°49.8°
09/01 - 06:00 PM81.9°49.7°
09/01 - 05:45 PM82.4°49.7°
09/01 - 05:30 PM83.4°49.5°
09/01 - 05:15 PM83.7°49.2°
09/01 - 05:00 PM83.5°48.1°
09/01 - 04:45 PM82.8°47.2°
09/01 - 04:30 PM83.1°46.7°
09/01 - 04:15 PM83.4°47.5°
09/01 - 04:00 PM83.6°47.3°
09/01 - 03:45 PM82.7°47.4°
09/01 - 03:30 PM82.6°49.4°
09/01 - 03:15 PM82.1°47.9°
09/01 - 03:00 PM81.6°49.3°
09/01 - 02:45 PM81.6°50.1°
09/01 - 02:30 PM80.8°50.9°
09/01 - 02:15 PM80.4°51.0°
09/01 - 02:00 PM79.9°51.7°
09/01 - 01:45 PM78.9°51.7°
09/01 - 01:30 PM78.2°52.8°
09/01 - 01:15 PM77.0°51.7°
09/01 - 01:00 PM76.5°52.2°
09/01 - 12:45 PM76.3°53.2°
09/01 - 12:30 PM75.4°53.5°
09/01 - 12:15 PM74.8°53.4°
09/01 - 12:00 PM74.3°54.1°
09/01 - 11:45 AM73.3°54.1°
09/01 - 11:30 AM72.6°54.2°
09/01 - 11:15 AM71.4°53.6°
09/01 - 11:00 AM70.7°53.7°
09/01 - 10:45 AM70.3°53.9°
09/01 - 10:30 AM69.0°52.9°
09/01 - 10:15 AM68.8°53.6°
09/01 - 10:00 AM68.7°53.7°
09/01 - 09:45 AM67.3°53.6°
09/01 - 09:30 AM66.0°52.7°
09/01 - 09:15 AM65.1°52.6°
09/01 - 09:00 AM64.3°52.9°
09/01 - 08:45 AM63.2°53.0°
09/01 - 08:30 AM62.5°54.0°
09/01 - 08:15 AM61.7°54.4°
09/01 - 08:00 AM61.1°55.0°
09/01 - 07:45 AM60.7°56.1°
09/01 - 07:30 AM60.0°56.6°
09/01 - 07:15 AM59.3°57.3°
09/01 - 07:00 AM58.4°57.2°
09/01 - 06:45 AM57.7°56.4°
09/01 - 06:30 AM57.7°56.2°
09/01 - 06:15 AM57.8°56.1°
09/01 - 06:00 AM58.0°56.0°
09/01 - 05:45 AM58.1°55.8°
09/01 - 05:30 AM58.4°56.1°
09/01 - 05:15 AM59.1°56.4°
09/01 - 05:00 AM59.6°56.7°
09/01 - 04:45 AM59.6°56.8°
09/01 - 04:30 AM60.2°57.7°
09/01 - 04:15 AM60.6°57.7°
09/01 - 04:00 AM61.5°58.1°
09/01 - 03:45 AM62.0°57.3°
09/01 - 03:30 AM61.0°55.7°
09/01 - 03:15 AM61.9°55.6°
09/01 - 03:00 AM62.4°54.9°
09/01 - 02:45 AM62.9°53.9°
09/01 - 02:30 AM63.3°53.8°
09/01 - 02:15 AM63.5°54.3°
09/01 - 02:00 AM63.6°53.8°
09/01 - 01:45 AM63.7°53.2°
09/01 - 01:30 AM64.9°53.8°
09/01 - 01:15 AM65.8°54.4°
09/01 - 01:00 AM65.9°53.5°
09/01 - 12:45 AM67.5°53.5°
09/01 - 12:30 AM67.8°52.8°
09/01 - 12:15 AM68.4°51.0°
09/01 - 12:00 AM68.4°49.0°
08/31 - 11:45 PM68.7°47.2°
08/31 - 11:30 PM70.1°47.0°
08/31 - 11:15 PM71.1°45.1°
08/31 - 11:00 PM72.6°43.5°
08/31 - 10:45 PM73.8°42.3°
08/31 - 10:30 PM73.8°43.2°
08/31 - 10:15 PM74.2°43.9°
08/31 - 10:00 PM75.5°41.1°
08/31 - 09:45 PM76.2°41.1°
08/31 - 09:30 PM75.0°41.7°
08/31 - 09:15 PM75.7°42.8°
08/31 - 09:00 PM76.1°47.1°
08/31 - 08:45 PM76.3°52.0°
08/31 - 08:30 PM75.4°56.7°
08/31 - 08:15 PM77.1°63.2°
08/31 - 08:00 PM78.1°65.2°
08/31 - 07:45 PM80.6°67.5°
08/31 - 07:30 PM82.6°67.5°
08/31 - 07:15 PM84.8°67.5°
08/31 - 07:00 PM85.8°63.8°
08/31 - 06:45 PM86.9°59.6°
08/31 - 06:30 PM88.9°56.6°
08/31 - 06:15 PM89.9°55.9°
08/31 - 06:00 PM90.6°55.2°
08/31 - 05:45 PM91.1°54.0°
08/31 - 05:30 PM91.6°53.4°
08/31 - 05:15 PM91.7°53.6°
08/31 - 05:00 PM91.9°54.4°
08/31 - 04:45 PM91.5°54.0°
08/31 - 04:30 PM91.4°53.5°
08/31 - 04:15 PM91.4°53.7°
08/31 - 04:00 PM91.4°54.6°
08/31 - 03:45 PM91.3°53.9°
08/31 - 03:30 PM91.3°54.2°
08/31 - 03:15 PM90.6°53.4°
08/31 - 03:00 PM90.3°52.7°
08/31 - 02:45 PM90.4°52.7°
08/31 - 02:30 PM90.5°52.5°
08/31 - 02:15 PM90.1°52.4°
08/31 - 02:00 PM89.1°50.8°
08/31 - 01:45 PM89.0°49.3°
08/31 - 01:30 PM88.5°51.6°
08/31 - 01:15 PM88.0°51.1°
08/31 - 01:00 PM87.4°51.4°
08/31 - 12:45 PM86.6°51.9°
08/31 - 12:30 PM86.1°52.4°
08/31 - 12:15 PM85.1°51.5°
08/31 - 12:00 PM84.7°52.9°
08/31 - 11:45 AM84.0°53.3°
08/31 - 11:30 AM83.3°53.9°
08/31 - 11:15 AM81.9°52.8°
08/31 - 11:00 AM81.5°53.5°
08/31 - 10:45 AM80.5°52.0°
08/31 - 10:30 AM79.7°51.8°
08/31 - 10:15 AM79.1°51.2°
08/31 - 10:00 AM79.1°50.9°
08/31 - 09:45 AM77.8°50.8°
08/31 - 09:30 AM76.9°51.5°
08/31 - 09:15 AM75.4°51.0°
08/31 - 09:00 AM73.7°50.5°
08/31 - 08:45 AM72.4°50.5°
08/31 - 08:30 AM71.6°52.0°
08/31 - 08:15 AM70.6°53.5°
08/31 - 08:00 AM69.4°54.4°
08/31 - 07:45 AM68.8°56.2°
08/31 - 07:30 AM68.2°57.3°
08/31 - 07:15 AM65.3°58.8°
08/31 - 07:00 AM63.5°58.8°
08/31 - 06:45 AM62.3°56.9°
08/31 - 06:30 AM61.8°55.2°
08/31 - 06:15 AM61.3°54.5°
08/31 - 06:00 AM62.4°56.0°
08/31 - 05:45 AM64.0°55.8°
08/31 - 05:30 AM63.6°52.8°
08/31 - 05:15 AM64.5°55.4°
08/31 - 05:00 AM65.5°59.4°
08/31 - 04:45 AM63.8°56.3°
08/31 - 04:30 AM64.6°56.1°
08/31 - 04:15 AM65.9°55.9°
08/31 - 04:00 AM66.3°54.8°
08/31 - 03:45 AM66.3°56.2°
08/31 - 03:30 AM66.5°61.8°
08/31 - 03:15 AM66.7°61.5°
08/31 - 03:00 AM65.8°59.5°
08/31 - 02:45 AM67.3°60.4°
08/31 - 02:30 AM68.9°60.5°
08/31 - 02:15 AM70.7°60.3°
08/31 - 02:00 AM68.9°58.5°
08/31 - 01:45 AM69.1°58.2°
08/31 - 01:30 AM70.0°58.7°
08/31 - 01:15 AM69.1°60.2°